TimeMST,TemperatureF,Dew PointF,Humidity,Sea Level PressureIn,VisibilityMPH,Wind Direction,Wind SpeedMPH,Gust SpeedMPH,PrecipitationIn,Events,Conditions,WindDirDegrees,DateUTC
12:15 AM,19.4,-5.8,33,30.02,10.0,SE,10.4,-,N/A,,Clear,130,2013-02-19 07:15:00
12:35 AM,17.6,-5.8,35,30.02,10.0,SE,10.4,-,N/A,,Clear,130,2013-02-19 07:35:00
12:55 AM,19.4,-7.6,30,30.01,10.0,SE,11.5,-,N/A,,Clear,140,2013-02-19 07:55:00
1:15 AM,19.4,-9.4,28,30.02,10.0,SE,5.8,-,N/A,,Clear,130,2013-02-19 08:15:00
1:35 AM,21.2,-11.2,24,30.01,10.0,SE,5.8,-,N/A,,Clear,140,2013-02-19 08:35:00
1:55 AM,19.4,-9.4,28,30.00,10.0,SE,6.9,-,N/A,,Clear,140,2013-02-19 08:55:00
2:15 AM,19.4,-11.2,25,30.00,10.0,SE,6.9,-,N/A,,Clear,130,2013-02-19 09:15:00
2:35 AM,19.4,-9.4,28,30.00,10.0,SE,6.9,-,N/A,,Clear,130,2013-02-19 09:35:00
2:55 AM,19.4,-9.4,28,29.99,10.0,SE,5.8,-,N/A,,Clear,130,2013-02-19 09:55:00
3:15 AM,17.6,-9.4,30,29.99,10.0,East,5.8,-,N/A,,Clear,100,2013-02-19 10:15:00
3:35 AM,19.4,-11.2,25,29.98,10.0,SE,5.8,-,N/A,,Clear,140,2013-02-19 10:35:00
3:55 AM,17.6,-11.2,27,29.99,10.0,ESE,4.6,-,N/A,,Clear,110,2013-02-19 10:55:00
4:15 AM,17.6,-13.0,25,29.99,10.0,ESE,3.5,-,N/A,,Clear,110,2013-02-19 11:15:00
4:35 AM,17.6,-13.0,25,29.99,10.0,ESE,5.8,-,N/A,,Clear,120,2013-02-19 11:35:00
4:55 AM,19.4,-13.0,23,29.98,10.0,SE,5.8,-,N/A,,Clear,140,2013-02-19 11:55:00
5:15 AM,19.4,-9.4,28,29.98,10.0,ESE,4.6,-,N/A,,Clear,120,2013-02-19 12:15:00
5:35 AM,17.6,-9.4,30,29.97,10.0,SE,5.8,-,N/A,,Clear,130,2013-02-19 12:35:00
5:55 AM,17.6,-9.4,30,29.97,10.0,ESE,8.1,-,N/A,,Clear,110,2013-02-19 12:55:00
6:15 AM,19.4,-13.0,23,29.97,10.0,SE,5.8,-,N/A,,Clear,140,2013-02-19 13:15:00
6:35 AM,17.6,-11.2,27,29.97,10.0,ESE,4.6,-,N/A,,Clear,110,2013-02-19 13:35:00
6:55 AM,17.6,-9.4,30,29.97,10.0,ESE,6.9,-,N/A,,Clear,120,2013-02-19 13:55:00
7:15 AM,19.4,-13.0,23,29.97,10.0,ESE,3.5,-,N/A,,Clear,120,2013-02-19 14:15:00
7:35 AM,19.4,-13.0,23,29.97,10.0,East,4.6,-,N/A,,Clear,100,2013-02-19 14:35:00
7:55 AM,21.2,-14.8,20,29.97,10.0,SE,3.5,-,N/A,,Clear,140,2013-02-19 14:55:00
8:15 AM,23.0,-9.4,24,29.97,10.0,ESE,6.9,-,N/A,,Clear,120,2013-02-19 15:15:00
8:35 AM,23.0,-11.2,22,29.96,10.0,East,3.5,-,N/A,,Clear,100,2013-02-19 15:35:00
8:55 AM,26.6,-11.2,19,29.95,10.0,East,10.4,-,N/A,,Clear,100,2013-02-19 15:55:00
9:15 AM,28.4,-13.0,16,29.95,10.0,East,8.1,16.1,N/A,,Clear,100,2013-02-19 16:15:00
9:35 AM,32.0,-9.4,17,29.94,10.0,East,8.1,-,N/A,,Clear,90,2013-02-19 16:35:00
9:55 AM,32.0,-4.0,21,29.93,10.0,East,9.2,21.9,N/A,,Clear,100,2013-02-19 16:55:00
10:15 AM,32.0,-2.2,23,29.93,10.0,ESE,11.5,24.2,N/A,,Clear,120,2013-02-19 17:15:00
10:35 AM,32.0,-2.2,23,29.92,10.0,ESE,11.5,19.6,N/A,,Clear,120,2013-02-19 17:35:00
10:55 AM,32.0,1.4,27,29.91,10.0,East,11.5,16.1,N/A,,Clear,100,2013-02-19 17:55:00
11:35 AM,33.8,1.4,25,29.88,10.0,SSE,18.4,25.3,N/A,,Clear,160,2013-02-19 18:35:00
11:55 AM,33.8,1.4,25,29.88,10.0,ESE,10.4,24.2,N/A,,Clear,120,2013-02-19 18:55:00
12:15 PM,33.8,1.4,25,29.87,10.0,SE,15.0,21.9,N/A,,Clear,130,2013-02-19 19:15:00
12:35 PM,33.8,1.4,25,29.86,10.0,SSE,10.4,25.3,N/A,,Clear,160,2013-02-19 19:35:00
12:55 PM,33.8,1.4,25,29.84,10.0,SE,12.7,28.8,N/A,,Clear,130,2013-02-19 19:55:00
1:15 PM,33.8,1.4,25,29.83,10.0,SE,8.1,25.3,N/A,,Clear,130,2013-02-19 20:15:00
1:35 PM,33.8,1.4,25,29.82,10.0,SSE,13.8,21.9,N/A,,Clear,150,2013-02-19 20:35:00
1:55 PM,33.8,1.4,25,29.81,10.0,SE,15.0,23.0,N/A,,Clear,140,2013-02-19 20:55:00
2:15 PM,35.6,-0.4,22,29.80,10.0,South,12.7,23.0,N/A,,Clear,180,2013-02-19 21:15:00
2:35 PM,35.6,1.4,24,29.80,10.0,SSE,9.2,-,N/A,,Clear,150,2013-02-19 21:35:00
2:55 PM,35.6,1.4,24,29.79,10.0,SE,12.7,23.0,N/A,,Clear,140,2013-02-19 21:55:00
3:15 PM,35.6,1.4,24,29.79,10.0,SE,10.4,20.7,N/A,,Clear,130,2013-02-19 22:15:00
3:35 PM,35.6,1.4,24,29.78,10.0,SE,20.7,26.5,N/A,,Clear,130,2013-02-19 22:35:00
3:55 PM,33.8,3.2,28,29.78,10.0,SSE,12.7,23.0,N/A,,Scattered Clouds,150,2013-02-19 22:55:00
4:15 PM,33.8,5.0,30,29.79,10.0,SE,15.0,24.2,N/A,,Scattered Clouds,130,2013-02-19 23:15:00
4:35 PM,33.8,3.2,28,29.79,10.0,ESE,13.8,19.6,N/A,,Clear,120,2013-02-19 23:35:00
5:35 PM,32.0,3.2,30,29.78,10.0,ESE,8.1,-,N/A,,Mostly Cloudy,110,2013-02-20 00:35:00
5:55 PM,32.0,3.2,30,29.76,10.0,ESE,5.8,-,N/A,,Scattered Clouds,110,2013-02-20 00:55:00
6:15 PM,32.0,3.2,30,29.76,10.0,East,5.8,9.2,N/A,,Clear,90,2013-02-20 01:15:00
6:55 PM,32.0,3.2,30,29.76,10.0,East,6.9,-,N/A,,Clear,90,2013-02-20 01:55:00
7:15 PM,32.0,3.2,30,29.76,10.0,ESE,10.4,18.4,N/A,,Clear,110,2013-02-20 02:15:00
7:35 PM,32.0,3.2,30,29.76,10.0,East,11.5,20.7,N/A,,Clear,90,2013-02-20 02:35:00
7:55 PM,32.0,3.2,30,29.76,10.0,ESE,11.5,-,N/A,,Clear,110,2013-02-20 02:55:00
8:15 PM,32.0,3.2,30,29.75,10.0,East,10.4,-,N/A,,Clear,100,2013-02-20 03:15:00
8:35 PM,32.0,3.2,30,29.75,10.0,East,10.4,-,N/A,,Clear,100,2013-02-20 03:35:00
8:55 PM,32.0,3.2,30,29.74,10.0,ESE,6.9,-,N/A,,Clear,110,2013-02-20 03:55:00
9:15 PM,32.0,3.2,30,29.74,10.0,ESE,6.9,-,N/A,,Clear,120,2013-02-20 04:15:00
9:35 PM,32.0,3.2,30,29.73,10.0,East,5.8,-,N/A,,Clear,100,2013-02-20 04:35:00
9:55 PM,32.0,3.2,30,29.73,10.0,ESE,5.8,-,N/A,,Clear,120,2013-02-20 04:55:00
10:15 PM,30.2,3.2,32,29.72,10.0,East,5.8,-,N/A,,Mostly Cloudy,100,2013-02-20 05:15:00
10:35 PM,32.0,3.2,30,29.71,10.0,East,3.5,-,N/A,,Overcast,100,2013-02-20 05:35:00
10:55 PM,32.0,3.2,30,29.71,10.0,East,12.7,19.6,N/A,,Overcast,100,2013-02-20 05:55:00
11:15 PM,32.0,5.0,32,29.71,10.0,ESE,5.8,-,N/A,,Scattered Clouds,120,2013-02-20 06:15:00
11:35 PM,32.0,5.0,32,29.71,10.0,ESE,12.7,19.6,N/A,,Scattered Clouds,120,2013-02-20 06:35:00
11:55 PM,32.0,6.8,35,29.71,10.0,Calm,Calm,-,N/A,,Scattered Clouds,0,2013-02-20 06:55:00